Location: Gauravaram
(16.6995°N, 80.5417°E)
Time: 16:47:05
(UTC+00:00)

CZ-4C R/B - Pass Details

Date: 03 August 2024
Orbit: 521 x 1470 km, 63.4° (Epoch: 18 September)

Event Time Altitude Azimuth Distance (km) Brightness Sun altitude
Rises 14:03:47 0° 356° (N) 4,147 6.2 -13.1°
Reaches altitude 10° 14:07:08 10° 9° (N) 3,313 5.4 -13.8°
Maximum altitude 14:13:35 24° 61° (ENE) 2,558 4.3 -15.3°
Enters shadow 14:17:24 19° 94° (E) 2,943 4.4 -16.1°
